Regional Weather Roundup
Issued by NWS

Home | Current Version | Previous Version | Graphics & Text | Print | Product List | Glossary On
Versions: 1 2 3 4 5 6 7 8 9 10 11 12 13 14 15 16 17 18 19 20 21 22 23 24 25 26 27 28 29 30 31 32 33 34 35 36 37 38 39 40 41 42 43 44 45 46 47 48 49 50
000
ASUS43 KMPX 021901
RWRMN
WEATHER ROUNDUP FOR MINNESOTA
NATIONAL WEATHER SERVICE TWIN CITIES/CHANHASSEN MN
200 PM CDT TUE JUN 02 2015


NOTE: "FAIR" INDICATES FEW OR NO CLOUDS BELOW 12,000 FEET WITH NO
SIGNIFICANT WEATHER AND/OR OBSTRUCTIONS TO VISIBILITY. N/A MEANS
CURRENT SKY AND/OR WEATHER CONDITIONS ARE NOT AVAILABLE.

MNZ060>063-068>070-022000-
   Twin Cities Metro

CITY           SKY/WX    TMP DP  RH WIND       PRES   REMARKS
TWIN CITIES    CLOUDY    72  53  51 SE16      30.01F
ST PAUL        PTSUNNY   73  54  51 S15       30.02F
CRYSTAL        CLOUDY    75  54  47 S14       29.99F
BLAINE         PTSUNNY   75  54  46 S14G21    30.02S
LAKEVILLE      CLOUDY    72  54  53 S12       30.03S
EDEN PRAIRIE   CLOUDY    73  55  53 S16G23    30.00F
SOUTH ST PAUL  PTSUNNY   74  51  45 S14G20    30.02F
LAKE ELMO      PTSUNNY   72  55  56 S15       30.04S
$$
MNZ001>005-007-008-013>017-022>024-027-028-022000-
   Northwest Minnesota

CITY           SKY/WX    TMP DP  RH WIND       PRES   REMARKS
BEMIDJI        CLOUDY    72  55  56 S16G25    29.82F
HALLOCK        RAIN      64  57  77 CALM      29.82F
ROSEAU         CLOUDY    70  59  68 S9        29.83F
WARROAD        CLOUDY    70  61  73 SW8       29.84F
THIEF RVR FALL CLOUDY    66  59  77 CALM      29.85R
CROOKSTON      CLOUDY    66  61  82 SW9       29.83F
FOSSTON        CLOUDY    68  61  77 SW3       29.84R
DETROIT LAKES  CLOUDY    70  55  60 S23G31    29.82S
MOORHEAD       CLOUDY    70  57  64 S24G33    29.81R
PARK RAPIDS    CLOUDY    74  52  46 S18       29.85F
MAHNOMEN       FAIR      68  58  69 S9        29.80R
$$
MNZ006-009>011-018-025>026-022000-
   North Central Minnesota

CITY           SKY/WX    TMP DP  RH WIND       PRES   REMARKS
BAUDETTE       LGT RAIN  59  56  89 S7        29.87F
FLAG ISLAND    CLOUDY    61  55  82 SE10      29.84F
INTL FALLS     CLOUDY    60  53  77 S3        29.90F
WASKISH        CLOUDY    64  59  82 CALM      29.87S
BIG FORK       CLOUDY    70  54  56 SE6       29.88F
LONGVILLE      CLOUDY    72  52  49 S13G24    29.89F
GRAND RAPIDS   PTSUNNY   73  50  43 S16G25    29.92F
CRANE LAKE     CLOUDY    64  48  55 SE6       29.94F
ORR            CLOUDY    70  46  43 S12G18    29.90F
COOK           CLOUDY    70  48  46 S9        29.94F
WALKER         FAIR      71  53  52 SE13G18   29.87F
$$
MNZ012-019>021-037-022000-
   Northeast Minnesota

CITY           SKY/WX    TMP DP  RH WIND       PRES   REMARKS
DULUTH         MOSUNNY   73  49  42 S17       29.98F
ELY            PTSUNNY   72  45  37 S9        29.95F
HIBBING        PTSUNNY   74  47  38 S14G23    29.93F
EVELETH        MOSUNNY   72  43  35 S16G24    29.95F
DULUTH HARBOR  MOSUNNY   50  43  76 NE6       30.01F
TWO HARBORS    MOSUNNY   73  54  49 S7        29.98F
SILVER BAY     MOSUNNY   72  48  43 S6        29.99S
GRAND MARAIS     N/A     46  38  73 NE5       30.04F
G MARAIS ARPRT CLOUDY    55  37  50 CALM      30.05F
$$
MNZ029>031-032-039>041-046>048-054>057-064-022000-
   West Central Minnesota

CITY           SKY/WX    TMP DP  RH WIND       PRES   REMARKS
FERGUS FALLS   CLOUDY    72  55  56 S23G30    29.85S
WHEATON        LGT RAIN  72  55  56 SE22G33   29.82F
MORRIS         CLOUDY    75  55  50 S32G40    29.82F
ALEXANDRIA     CLOUDY    68  53  58 SE25G33   29.88F
ELBOW LAKE     FAIR      72  57  58 S23G31    29.86R
WADENA         CLOUDY    70  54  56 S15G25    29.88R
GLENWOOD       CLOUDY    68  54  60 SE21G30   29.90F
APPLETON       CLOUDY    77  54  44 S14G25    29.85F
BENSON         CLOUDY    72  52  49 S18G28    29.86F
ORTONVILLE     CLOUDY    75  57  53 S20G26    29.83F
MADISON        LGT RAIN  77  57  50 S26G33    29.85F
WILLMAR        FAIR      75  54  46 S15G25    29.94S
$$
MNZ033>034-036-042>043-049>051-058-059-022000-
   Central Minnesota

CITY           SKY/WX    TMP DP  RH WIND       PRES   REMARKS
ST CLOUD       CLOUDY    71  52  50 S16G26    29.95F
SAUK CENTRE    FAIR      70  51  50 SE23G29   29.91F
PAYNESVILLE    CLOUDY    67  52  59 E13G23    29.95F
AITKIN         PTSUNNY   73  52  46 S15G23    29.93F
PINE RIVER     CLOUDY    70  55  60 S18G24    29.92F
BRAINERD       CLOUDY    71  53  52 S17G25    29.92F
STAPLES        CLOUDY    73  52  46 S20G26    29.88F
LONG PRAIRIE   FAIR      70  52  52 SE24G31   29.89F
LITTLE FALLS   CLOUDY    73  48  40 SE17G23   29.93F
LITCHFIELD     CLOUDY    73  55  53 SE9G17    29.96F
BUFFALO        CLOUDY    71  52  50 SE14G20   29.99F
MAPLE LAKE     CLOUDY    73  55  52 S10G17    29.99F
$$
MNZ037-044-045-052-053-022000-
   East Central Minnesota

CITY           SKY/WX    TMP DP  RH WIND       PRES   REMARKS
PRINCETON      CLOUDY    75  54  46 S10G16    29.97F
MORA           PTSUNNY   72  48  43 S13G21    30.00F
CAMBRIDGE      PTSUNNY   77  55  47 S15G22    29.97F
RUSH CITY      PTSUNNY   72  52  50 S15       30.00F
MOOSE LAKE     MOSUNNY   72  48  43 SW20G25   29.96F
HINCKLEY       FAIR      72  54  53 S15       30.00F
CLOQUET        SUNNY     73  45  35 S15       29.97F
MCGREGOR       PTSUNNY   73  48  40 S15G21    29.95F
$$
MNZ071>073-080-081-089-090-097-098-022000-
   Southwest Minnesota

CITY           SKY/WX    TMP DP  RH WIND       PRES   REMARKS
MONTEVIDEO     CLOUDY    79  55  44 S14G24    29.89F
GRANITE FALLS  CLOUDY    77  54  44 SE18G26   29.92S
CANBY          PTSUNNY   75  57  54 S15G31    29.87F
MARSHALL       CLOUDY    75  55  50 S20G26    29.90F
REDWOOD FALLS  PTSUNNY   78  53  41 S21G30    29.92F
OLIVIA         CLOUDY    72  50  46 S20G28    29.93F
PIPESTONE      PTSUNNY   73  57  56 S24G31    29.91F
WINDOM         SUNNY     73  54  49 S16G23    29.96F
WORTHINGTON    MOSUNNY   73  54  49 S18       29.95F
JACKSON        SUNNY     73  52  46 S17       29.99F
TRACY          MOSUNNY   78  57  47 S15G25    29.91F
SLAYTON        PTSUNNY   75  54  47 S23G30    29.93F
$$
MNZ065>067-074>077-082>085-091>093-022000-
   South Central Minnesota

CITY           SKY/WX    TMP DP  RH WIND       PRES   REMARKS
MANKATO        CLOUDY    73  52  46 S18G26    29.99F
NEW ULM        PTSUNNY   73  52  46 S16G24    29.97S
ST JAMES       MOSUNNY   77  54  44 SE21      29.98F
FAIRMONT         N/A    N/A N/A N/A S15G24    29.99F
GLENCOE        CLOUDY    75  56  51 SE14      29.97F
FARIBAULT      CLOUDY    72  55  56 S13       30.04S
OWATONNA       CLOUDY    72  54  53 SE12G21   30.05S
WASECA         CLOUDY    72  52  49 S13       30.04S
ALBERT LEA     PTSUNNY   73  54  49 SE14      30.03S
$$
MNZ078>079-086>088-094>096-022000-
   Southeast Minnesota

CITY           SKY/WX    TMP DP  RH WIND       PRES   REMARKS
ROCHESTER      CLOUDY    70  53  54 SE16G23   30.06F
RED WING       PTSUNNY   73  52  46 SW13      30.03F
STANTON        CLOUDY    72  53  51 S13G18    30.03S
DODGE CENTER   CLOUDY    70  54  56 S16G22    30.05F
WINONA         MOSUNNY   73  52  46 S5        30.06F
AUSTIN         PTSUNNY   70  55  60 S12G17    30.05F
PRESTON        PTSUNNY   68  52  56 S12G17    30.07F
$$
ABBREVIATIONS USED IN REMARKS
   TC - TEMPERATURES IN CELSIUS
  WCI - WIND CHILL INDEX
   HX - HEAT INDEX
  VSB - VISIBILITY
$$


USA.gov is the U.S. government's official web portal to all federal, state and local government web resources and services.